Weather History for KMYF - August, 2014

Change the Weather History Date:

Sunday, August 3, 2014

  Actual Average (KSAN) Record (KSAN)
Temperature  
Mean Temperature 74 °F 71 °F  
Max Temperature 80 °F 76 °F 85 °F (1971)
Min Temperature 71 °F 67 °F 57 °F (1888)
Degree Days  
Heating Degree Days 0 0  
Month to date heating degree days 0  
Since 1 June heating degree days 19  
Since 1 July heating degree days 1  
Cooling Degree Days 10 6  
Month to date cooling degree days 18  
Year to date cooling degree days 283  
Since 1 June cooling degree days 234  
Growing Degree Days 24 (Base 50)    
Moisture  
Dew Point 67 °F    
Average Humidity 80    
Maximum Humidity 94    
Minimum Humidity 64    
Precipitation  
Precipitation 0.02 in 0.00 in 0.01 in (2006)
Month to date precipitation 0.00  
Year to date precipitation 7.06  
Sea Level Pressure  
Sea Level Pressure 29.93 in    
Wind  
Wind Speed 3 mph (SSW)    
Max Wind Speed 10 mph    
Max Gust Speed -    
Visibility 8 miles    
Events Rain    
T = Trace of Precipitation, MM = Missing Value Source: NWS Daily Summary

Daily Weather History Graph

Daily Weather History Graph

Search for Another Location

Airport or City:

Trip Planner

Search our weather history database for the weather conditions in past years. The results will help you decide how hot, cold, wet, or windy it might be!

Date:

Astronomy

Aug. 03, 2014 Rise Set
Actual Time 6:03 AM PDT 7:45 PM PDT
Civil Twilight 5:36 AM PDT 8:11 PM PDT
Nautical Twilight 5:04 AM PDT 8:44 PM PDT
Astronomical Twilight 4:30 AM PDT 9:18 PM PDT
Moon 1:03 PM PDT (8/3) No Moon Set
Length of Visible Light 14h 35m
Length of Day
13h 41m
Waxing Crescent, 48% of the Moon is Illuminated
Aug 3
Waxing Crescent
Aug 3
First Quarter
Aug 10
Full
Aug 17
Last Quarter
Aug 25
New

Hourly Weather History & Observations

Time (PDT) Temp. Dew Point Humidity Pressure Visibility Wind Dir Wind Speed Gust Speed Precip Events Conditions
1:53 AM 72.0 °F 68.0 °F 87% 29.90 in 8.0 mi Calm Calm - 0.02 in   Overcast
2:53 AM 72.0 °F 68.0 °F 87% 29.90 in 8.0 mi South 3.5 mph - N/A   Overcast
3:53 AM 71.1 °F 69.1 °F 93% 29.89 in 6.0 mi Calm Calm - N/A   Overcast
4:53 AM 71.1 °F 69.1 °F 93% 29.90 in 6.0 mi Calm Calm - N/A   Overcast
5:53 AM 71.1 °F 69.1 °F 93% 29.91 in 5.0 mi South 3.5 mph - N/A   Mostly Cloudy
6:01 AM 71.6 °F 69.8 °F 94% 29.93 in 5.0 mi South 4.6 mph - N/A   Mostly Cloudy
6:53 AM 71.1 °F 69.1 °F 93% 29.92 in 3.0 mi SSE 5.8 mph - N/A   Overcast
7:53 AM 72.0 °F 68.0 °F 87% 29.93 in 5.0 mi SSE 5.8 mph - N/A   Overcast
8:53 AM 72.0 °F 68.0 °F 87% 29.94 in 5.0 mi Calm Calm - N/A   Overcast
9:53 AM 73.9 °F 69.1 °F 85% 29.94 in 6.0 mi Calm Calm - N/A   Haze
10:04 AM 75.2 °F 68.0 °F 78% 29.95 in 6.0 mi West 3.5 mph - N/A   Haze
10:30 AM 75.2 °F 68.0 °F 78% 29.95 in 7.0 mi WSW 4.6 mph - N/A   Mostly Cloudy
10:53 AM 78.1 °F 68.0 °F 71% 29.94 in 8.0 mi WSW 5.8 mph - N/A   Mostly Cloudy
11:53 AM 78.1 °F 68.0 °F 71% 29.94 in 10.0 mi SW 10.4 mph - N/A   Mostly Cloudy
12:53 PM 78.1 °F 66.9 °F 68% 29.94 in 10.0 mi SW 9.2 mph - N/A   Mostly Cloudy
1:53 PM 75.9 °F 66.0 °F 71% 29.94 in 10.0 mi SSW 6.9 mph - N/A   Mostly Cloudy
2:53 PM 77.0 °F 64.9 °F 66% 29.92 in 10.0 mi SSW 9.2 mph - 0.00 in   Overcast
3:53 PM 77.0 °F 64.0 °F 64% 29.91 in 10.0 mi South 8.1 mph - N/A   Mostly Cloudy
4:53 PM 73.9 °F 64.0 °F 71% 29.92 in 10.0 mi SSW 6.9 mph - N/A   Overcast
5:53 PM 75.9 °F 64.0 °F 67% 29.92 in 10.0 mi West 4.6 mph - N/A   Overcast
7:53 PM 72.0 °F 66.0 °F 81% 29.94 in 10.0 mi WSW 6.9 mph - N/A   Scattered Clouds
8:53 PM 72.0 °F 64.9 °F 78% 29.96 in 10.0 mi SW 4.6 mph - N/A   Overcast
9:53 PM 72.0 °F 64.9 °F 78% 29.97 in 10.0 mi Calm Calm - N/A   Mostly Cloudy
11:53 PM 73.9 °F 64.0 °F 71% 29.94 in 9.0 mi Calm Calm - 0.00 in Rain Light Rain